AEROCUBE 8A

Last updated on Tue Jul 06 2021 15:45:18 GMT+0000 (Coordinated Universal Time)

1 40659U 15025J 21186.57747010 .00073501 12496-4 32765-3 0 9994 2 40659 55.0050 295.4886 0053610 102.0825 258.6236 15.82275974103596

Satellite not in orbit